TimeCDT,TemperatureF,Dew PointF,Humidity,Sea Level PressureIn,VisibilityMPH,Wind Direction,Wind SpeedMPH,Gust SpeedMPH,PrecipitationIn,Events,Conditions,WindDirDegrees,DateUTC
12:14 AM,60.8,57.2,88,29.79,7.0,WSW,3.5,-,N/A,,Overcast,250,2012-10-24 05:14:00
12:34 AM,60.8,57.2,88,29.79,7.0,Calm,Calm,-,N/A,,Overcast,0,2012-10-24 05:34:00
12:54 AM,57.2,55.4,94,29.79,7.0,Calm,Calm,-,N/A,,Overcast,0,2012-10-24 05:54:00
1:14 AM,59.0,55.4,88,29.78,5.0,Calm,Calm,-,N/A,,Overcast,0,2012-10-24 06:14:00
1:34 AM,57.2,55.4,94,29.80,5.0,Calm,Calm,-,N/A,,Overcast,0,2012-10-24 06:34:00
1:54 AM,60.8,57.2,88,29.80,7.0,Calm,Calm,-,N/A,,Overcast,0,2012-10-24 06:54:00
2:14 AM,60.8,55.4,82,29.80,7.0,West,3.5,-,N/A,,Mostly Cloudy,260,2012-10-24 07:14:00
2:34 AM,57.2,55.4,94,29.80,7.0,West,4.6,-,N/A,,Scattered Clouds,260,2012-10-24 07:34:00
2:54 AM,55.4,53.6,94,29.81,4.0,Calm,Calm,-,N/A,,Clear,0,2012-10-24 07:54:00
3:14 AM,55.4,55.4,100,29.81,5.0,Calm,Calm,-,N/A,,Scattered Clouds,0,2012-10-24 08:14:00
3:34 AM,55.4,53.6,94,29.80,3.0,Calm,Calm,-,N/A,,Clear,0,2012-10-24 08:34:00
3:54 AM,55.4,53.6,94,29.81,0.5,Calm,Calm,-,N/A,Fog,Fog,0,2012-10-24 08:54:00
4:14 AM,55.4,53.6,94,29.80,1.0,Calm,Calm,-,N/A,,Mostly Cloudy,0,2012-10-24 09:14:00
4:34 AM,51.8,51.8,100,29.81,1.0,Calm,Calm,-,N/A,,Mostly Cloudy,0,2012-10-24 09:34:00
4:54 AM,51.8,50.0,94,29.81,0.5,Calm,Calm,-,N/A,Fog,Fog,0,2012-10-24 09:54:00
5:14 AM,51.8,51.8,100,29.81,1.5,Calm,Calm,-,N/A,,Overcast,0,2012-10-24 10:14:00
5:33 AM,53.6,51.8,94,29.82,2.5,Calm,Calm,-,N/A,,Overcast,0,2012-10-24 10:33:00
5:54 AM,53.6,53.6,100,29.82,3.0,Calm,Calm,-,N/A,,Overcast,0,2012-10-24 10:54:00
6:14 AM,53.6,53.6,100,29.82,2.5,Calm,Calm,-,N/A,,Overcast,0,2012-10-24 11:14:00
6:34 AM,55.4,55.4,100,29.83,3.0,WNW,6.9,-,N/A,,Mostly Cloudy,300,2012-10-24 11:34:00
6:45 AM,55.4,55.4,100,29.83,3.0,WNW,5.8,-,N/A,,Scattered Clouds,290,2012-10-24 11:45:00
6:54 AM,55.4,55.4,100,29.84,3.0,WNW,4.6,-,N/A,,Scattered Clouds,300,2012-10-24 11:54:00
7:45 AM,53.6,53.6,100,29.84,2.0,Calm,Calm,-,N/A,,Overcast,0,2012-10-24 12:45:00
8:45 AM,55.4,55.4,100,29.85,2.0,Calm,Calm,-,N/A,,Overcast,0,2012-10-24 13:45:00
9:45 AM,57.2,55.4,94,29.84,3.0,NW,9.2,-,N/A,,Overcast,320,2012-10-24 14:45:00
10:45 AM,60.8,55.4,82,29.83,6.0,North,9.2,-,N/A,,Overcast,350,2012-10-24 15:45:00
11:45 AM,60.8,57.2,88,29.83,7.0,NNE,9.2,-,N/A,,Overcast,20,2012-10-24 16:45:00
12:45 PM,60.8,55.4,82,29.81,7.0,North,11.5,-,N/A,,Overcast,10,2012-10-24 17:45:00
1:55 PM,57.2,55.4,94,29.78,3.0,North,6.9,-,N/A,,Light Drizzle,360,2012-10-24 18:55:00
2:55 PM,57.2,55.4,94,29.76,3.0,North,8.1,-,N/A,,Light Drizzle,350,2012-10-24 19:55:00
3:45 PM,57.2,55.4,94,29.75,2.5,NNW,8.1,-,N/A,,Light Drizzle,330,2012-10-24 20:45:00
4:45 PM,55.4,53.6,94,29.75,2.5,NNW,9.2,-,N/A,Rain,Light Rain,330,2012-10-24 21:45:00
5:45 PM,55.4,53.6,94,29.76,5.0,NNW,15.0,20.7,N/A,,Light Drizzle,330,2012-10-24 22:45:00
6:45 PM,53.6,51.8,94,29.77,5.0,NNW,11.5,17.3,N/A,Rain,Light Rain,330,2012-10-24 23:45:00
7:45 PM,53.6,51.8,94,29.78,7.0,NNW,10.4,-,N/A,,Overcast,340,2012-10-25 00:45:00
8:45 PM,51.8,50.0,94,29.78,7.0,North,11.5,-,N/A,,Overcast,350,2012-10-25 01:45:00
9:14 PM,51.8,50.0,94,29.78,10.0,North,11.5,-,N/A,,Light Drizzle,350,2012-10-25 02:14:00
9:34 PM,51.8,50.0,94,29.78,10.0,NNW,8.1,-,N/A,,Overcast,340,2012-10-25 02:34:00
9:54 PM,51.8,50.0,94,29.74,10.0,NNW,17.3,-,N/A,,Overcast,340,2012-10-25 02:54:00
10:14 PM,51.8,48.2,88,29.77,10.0,NW,13.8,-,N/A,,Overcast,320,2012-10-25 03:14:00
10:34 PM,50.0,48.2,94,29.78,10.0,NNW,15.0,19.6,N/A,,Overcast,340,2012-10-25 03:34:00
10:54 PM,50.0,48.2,94,29.78,10.0,NNW,13.8,17.3,N/A,,Overcast,340,2012-10-25 03:54:00
11:14 PM,50.0,48.2,94,29.77,7.0,NNW,17.3,-,N/A,,Overcast,340,2012-10-25 04:14:00
11:34 PM,48.2,46.4,93,29.77,10.0,North,15.0,19.6,N/A,,Overcast,350,2012-10-25 04:34:00
11:54 PM,48.2,46.4,93,29.78,10.0,NNW,12.7,-,N/A,,Overcast,340,2012-10-25 04:54:00